Horseheads, NY

7:29 AM EST on February 19, 2017 (GMT -0500)
Elmira-Corning Regional

Weather History for KELM - August, 2013

Change the Weather History Date:

Thursday, August 15, 2013

  Actual Average Record
Temperature  
Mean Temperature 58 °F -  
Max Temperature 73 °F 82 °F 95 °F (1938)
Min Temperature 43 °F 55 °F 33 °F (1996)
Degree Days  
Heating Degree Days 7    
Growing Degree Days 8 (Base 50)    
Moisture  
Dew Point 48 °F    
Average Humidity 76    
Maximum Humidity 97    
Minimum Humidity 42    
Precipitation  
Precipitation 0.00 in - - ()
Sea Level Pressure  
Sea Level Pressure 30.14 in    
Wind  
Wind Speed 4 mph (WSW)    
Max Wind Speed 9 mph    
Max Gust Speed -    
Visibility 8 miles    
Events Fog    
Averages and records for this station are not official NWS values.
T = Trace of Precipitation, MM = Missing Value Source: NWS Daily Summary

Daily Weather History Graph

Daily Weather History Graph

Search for Another Location

Airport or City:

Trip Planner

Search our weather history database for the weather conditions in past years. The results will help you decide how hot, cold, wet, or windy it might be!

Date:

Astronomy

Aug. 15, 2013 Rise Set
Actual Time 6:15 AM EDT 8:07 PM EDT
Civil Twilight 5:45 AM EDT 8:37 PM EDT
Nautical Twilight 5:08 AM EDT 9:14 PM EDT
Astronomical Twilight 4:28 AM EDT 9:54 PM EDT
Moon 3:24 PM EDT (8/15) 12:21 AM EDT (8/15)
Length of Visible Light 14h 52m
Length of Day
13h 52m
Waxing Gibbous, 64% of the Moon is Illuminated
Aug 15
Waxing Gibbous
Aug 20
Full
Aug 28
Last Quarter
Sep 5
New
Sep 12
First Quarter

Hourly Weather History & Observations

Time (EDT) Temp. Windchill Dew Point Humidity Pressure Visibility Wind Dir Wind Speed Gust Speed Precip Events Conditions
12:53 AM 51.1 °F - 46.9 °F 86% 30.11 in 10.0 mi SW 6.9 mph - N/A   Clear
1:53 AM 46.0 °F - 44.1 °F 93% 30.11 in 10.0 mi Calm Calm - N/A   Clear
2:53 AM 45.0 °F 43.5 °F 43.0 °F 93% 30.11 in 9.0 mi West 3.5 mph - N/A   Clear
3:53 AM 43.0 °F 41.3 °F 42.1 °F 97% 30.12 in 7.0 mi West 3.5 mph - N/A   Clear
4:53 AM 44.1 °F - 42.1 °F 93% 30.13 in 6.0 mi Calm Calm - N/A   Clear
5:53 AM 46.9 °F - 44.1 °F 90% 30.14 in 10.0 mi WSW 4.6 mph - N/A   Clear
6:03 AM 46.4 °F 44.3 °F 44.6 °F 93% 30.14 in 10.0 mi WSW 4.6 mph - N/A   Partly Cloudy
6:14 AM 46.4 °F 43.5 °F 44.6 °F 93% 30.15 in 2.0 mi WSW 5.8 mph - N/A   Mostly Cloudy
6:18 AM 46.4 °F 43.5 °F 44.6 °F 93% 30.15 in 0.8 mi WSW 5.8 mph - N/A   Mist
6:26 AM 46.4 °F 44.3 °F 44.6 °F 93% 30.15 in 0.2 mi WSW 4.6 mph - N/A Fog Fog
6:53 AM 46.9 °F - 46.0 °F 97% 30.16 in 0.2 mi Calm Calm - N/A Fog Fog
7:51 AM 48.2 °F - 46.4 °F 93% 30.17 in 0.2 mi SSW 3.5 mph - N/A Fog Fog
7:53 AM 48.0 °F - 46.9 °F 96% 30.18 in 0.2 mi SSW 3.5 mph - N/A Fog Fog
8:21 AM 50.0 °F - 48.2 °F 94% 30.18 in 0.5 mi West 3.5 mph - N/A Fog Fog
8:53 AM 52.0 °F - 48.9 °F 89% 30.19 in 10.0 mi Calm Calm - N/A   Partly Cloudy
9:53 AM 62.1 °F - 51.1 °F 67% 30.17 in 10.0 mi WSW 6.9 mph - N/A   Partly Cloudy
10:53 AM 66.9 °F - 48.9 °F 52% 30.17 in 10.0 mi WSW 9.2 mph - N/A   Scattered Clouds
11:53 AM 66.9 °F - 48.9 °F 52% 30.17 in 10.0 mi Variable 3.5 mph - N/A   Mostly Cloudy
12:53 PM 68.0 °F - 48.9 °F 50% 30.15 in 10.0 mi Calm Calm - N/A   Overcast
1:53 PM 71.1 °F - 51.1 °F 49% 30.13 in 10.0 mi SW 9.2 mph - N/A   Mostly Cloudy
2:53 PM 72.0 °F - 48.9 °F 44% 30.12 in 10.0 mi WNW 4.6 mph - N/A   Partly Cloudy
3:53 PM 72.0 °F - 48.9 °F 44% 30.10 in 10.0 mi West 8.1 mph - N/A   Partly Cloudy
4:53 PM 73.0 °F - 48.9 °F 42% 30.09 in 10.0 mi West 9.2 mph - N/A   Clear
5:53 PM 71.1 °F - 51.1 °F 49% 30.09 in 10.0 mi West 5.8 mph - N/A   Mostly Cloudy
6:53 PM 71.1 °F - 51.1 °F 49% 30.08 in 10.0 mi West 6.9 mph - N/A   Clear
7:53 PM 64.0 °F - 54.0 °F 70% 30.11 in 10.0 mi West 4.6 mph - N/A   Partly Cloudy
8:53 PM 64.0 °F - 55.0 °F 73% 30.12 in 10.0 mi Calm Calm - N/A   Overcast
9:53 PM 60.1 °F - 55.0 °F 83% 30.14 in 10.0 mi Calm Calm - N/A   Overcast
10:53 PM 59.0 °F - 54.0 °F 83% 30.15 in 10.0 mi SW 4.6 mph - N/A   Mostly Cloudy
11:53 PM 55.9 °F - 52.0 °F 87% 30.16 in 10.0 mi Calm Calm - N/A   Clear